Regional Weather Roundup
Issued by NWS

Home | Current Version | Previous Version | Text Only | Print | Product List | Glossary On
Versions: 1 2 3 4 5 6 7 8 9 10 11 12 13 14 15 16 17 18 19 20 21 22 23 24 25 26 27 28 29 30 31 32 33 34 35 36 37 38 39 40 41 42 43 44 45 46 47 48 49 50
408
ASUS44 KLIX 172205
RWRLA
LOUISIANA WEATHER ROUNDUP
NATIONAL WEATHER SERVICE NEW ORLEANS LA
500 PM CDT THU APR 17 2014

NOTE: "FAIR" INDICATES FEW OR NO CLOUDS BELOW 12,000 FEET WITH NO
      SIGNIFICANT WEATHER AND/OR OBSTRUCTIONS TO VISIBILITY.
      SKY/WX - SKY CONDITION AND SIGNIFICANT WEATHER.
      TMP - AIR TEMPERATURE.    DP   - DEWPOINT TEMPERATURE.
      RH  - RELATIVE HUMIDITY.  PRES - PRESSURE.
      HX  - HEAT INDEX.         WCI  - WIND CHILL INDEX.

*  THESE STATIONS ARE NOT NWS OR FAA STATIONS AND ARE NOT UNDER
   NWS QUALITY CONTROL.

LAZ040-048-061>063-065-066-069-172300-
SOUTHEAST LOUISIANA

CITY           SKY/WX    TMP DP  RH WIND       PRES   REMARKS
N.O. AUDUBON     N/A    N/A N/A N/A MISG        N/A
N.O. INTL ARPT CLOUDY    65  59  81 E13G23    30.14S
N.O. LAKEFRONT CLOUDY    63  60  90 E16       30.15S
N.O. DOWNTOWN* CLOUDY    63  55  77 E8G17     30.15S
SLIDELL        CLOUDY    63  58  83 SE3       30.15S
BATON ROUGE    CLOUDY    66  57  72 E9        30.13S
BOOTHVILLE     CLOUDY    64  61  90 E12       30.14S FOG
BELLE CHASSE   CLOUDY    65  58  78 E14       30.14R
BOGALUSA*        N/A     67  57  68 E8        30.17S
GALLIANO*      LGT RAIN  66  63  88 NE8       30.13S
NEW ROADS*     FAIR      65  55  72 E8        30.13R
GONZALES*      MOCLDY    64  60  86 NE7       30.12F
HAMMOND*       CLOUDY    64  57  77 E7        30.16F
HOUMA*         CLOUDY    64  59  82 E15       30.12F HAZE
PORT FOURCHON* CLEAR     66  63  88 E9        30.14S FOG

$$

LAZ041-044-053-054-172300-
SOUTHWEST LOUISIANA

CITY           SKY/WX    TMP DP  RH WIND       PRES   REMARKS
LAKE CHARLES   CLOUDY    65  54  67 NE12      30.10F
LAFAYETTE      CLOUDY    63  56  78 E5        30.11S
PATTERSON      CLOUDY    63  57  82 E13         N/A
SALT POINT       N/A     66  60  81 VRB3      30.08F
NEW IBERIA     CLOUDY    65  56  72 E10       30.11R
CHENAULT AIRPK CLOUDY    64  54  68 NE7       30.12F

$$

LAZ027-028-172300-
CENTRAL LOUISIANA

CITY           SKY/WX    TMP DP  RH WIND       PRES   REMARKS
FORT POLK      CLOUDY    61  52  72 E9        30.13F
ALEXANDRIA INT CLOUDY    64  54  69 N3        30.13R
ALEXANDRIA     CLOUDY    68  51  54 E3        30.13R

$$

LAZ001-002-172300-
NORTHWEST LOUISIANA

CITY           SKY/WX    TMP DP  RH WIND       PRES   REMARKS
SHREVEPORT     MOSUNNY   68  47  46 VRB5      30.14S
BARKSDALE AFB  MOSUNNY   68  47  47 E6        30.14F
DTN SHREVEPORT MOSUNNY   67  48  50 VRB3      30.15S

$$

LAZ014-016-172300-
NORTHEAST LOUISIANA

CITY           SKY/WX    TMP DP  RH WIND       PRES   REMARKS
MONROE         CLOUDY    65  51  60 E6        30.15F
TALLULAH       CLOUDY    67  53  61 E7        30.16F

$$




USA.gov is the U.S. government's official web portal to all federal, state and local government web resources and services.